Home > Time Zones > World Clock > Weather > India > Surat > Past weeks

Flag for India Weather past 2 weeks in Surat, Gujarat, India

Now
91 °F

Scattered clouds.


Feels Like: 97 °F
Forecast: 76 / 88 °F
Wind: 5 mph from Southwest

Location: Ahmadabad Airport

Current Time: Sep 3, 2015 at 7:13:33 PM

Latest Report: Sep 3, 2015 at 6:40 PM


Visibility: 2 mi

Pressure: 29.74 "Hg

Humidity: 49%

Dew point: 70 °F

Location of SuratLocation

Historic Weather in Surat — Graph

°F

Surat temperature yesterday

Maximum temperature yesterday: 95 °F (at 3:10 PM)
Minimum temperature yesterday: 81 °F (at 5:10 AM)
Average temperature yesterday: 87 °F

Past Weeks' High & Low Weather Summary

 TemperatureHumidityPressure
High99 °F (Aug 29, 4:40 PM)89% (Aug 21, 6:40 AM)29.80 "Hg (Aug 21, 6:40 AM)
Low79 °F (Aug 20, 5:40 AM)44% (Aug 21, 4:40 PM)29.62 "Hg (Aug 26, 5:40 PM)
Average87 °F68%29.70 "Hg
* Reported Aug 19 5:40 PM — Sep 3 5:40 PM, Surat, Weather by CustomWeather, © 2015

Note: Actual official high and low records may vary slightly from our data, if they occured in-between our weather recording intervals... More about our weather records

Advertising

Surat weather history for previous 24 hours

 ConditionsComfort  
Time TempWeatherWind HumidityBarometerVisibility
5:40 PM
Thu, Sep 3
93 °FScattered clouds.3 mph47%29.71 "Hg3 mi
5:10 PM93 °FScattered clouds.7 mph49%29.71 "Hg3 mi
4:40 PM95 °FScattered clouds.3 mph47%29.71 "Hg3 mi
3:40 PM95 °FScattered clouds.3 mph47%29.71 "Hg3 mi
3:10 PM95 °FScattered clouds.6 mph47%29.71 "Hg3 mi
2:40 PM95 °FPartly sunny.3 mph50%29.74 "Hg3 mi
2:10 PM93 °FPartly sunny.3 mph53%29.74 "Hg3 mi
1:40 PM91 °FPartly sunny.5 mph56%29.77 "Hg3 mi
1:10 PM91 °FPartly sunny.6 mph56%29.77 "Hg3 mi
12:40 PM91 °FPartly sunny.3 mph56%29.77 "Hg3 mi
11:40 AM90 °FPartly sunny.5 mph59%29.80 "Hg3 mi
11:10 AM90 °FPartly sunny.3 mph63%29.80 "Hg3 mi
10:10 AM88 °FScattered clouds.6 mph66%29.80 "Hg2 mi
8:40 AM84 °FHaze.3 mph70%29.80 "Hg2 mi
7:40 AM81 °FHaze.3 mph74%29.77 "Hg2 mi
7:10 AM81 °FHaze.2 mph74%29.77 "Hg2 mi
6:40 AM79 °FHaze.2 mph74%29.74 "Hg2 mi
6:10 AM79 °FHaze.1 mph74%29.74 "Hg2 mi
5:40 AM79 °FHaze.3 mph74%29.74 "Hg2 mi
5:10 AM79 °FHaze.5 mph79%29.74 "Hg2 mi
4:40 AM79 °FHaze.3 mph79%29.71 "Hg2 mi
4:10 AM79 °FHaze.3 mph79%29.71 "Hg2 mi
3:40 AM81 °FHaze.3 mph79%29.71 "Hg2 mi
3:10 AM81 °FHaze.7 mph79%29.71 "Hg2 mi
2:40 AM81 °FHaze.6 mph79%29.71 "Hg2 mi
2:10 AM82 °FHaze.6 mph74%29.71 "Hg2 mi
1:40 AM82 °FHaze.7 mph74%29.71 "Hg2 mi
1:10 AM82 °FHaze.9 mph74%29.71 "Hg2 mi
12:40 AM82 °FHaze.9 mph74%29.71 "Hg2 mi
12:10 AM82 °FHaze.6 mph79%29.74 "Hg2 mi
10:40 PM
Wed, Sep 2
84 °FPassing clouds.7 mph70%29.74 "Hg2 mi
9:40 PM86 °FPassing clouds.8 mph66%29.71 "Hg2 mi
9:10 PM88 °FPassing clouds.8 mph62%29.71 "Hg2 mi
8:10 PM88 °FPassing clouds.5 mph62%29.68 "Hg2 mi
7:40 PM88 °FPassing clouds.6 mph62%29.65 "Hg2 mi
7:10 PM90 °FPassing clouds.2 mph55%29.65 "Hg2 mi
Weather by CustomWeather, © 2015

See weather overviewHow to use our weather pages